Find Starlink 35976

NORAD ID: 66534 Int'l Des: 2025-265 Owner: SPXS Country: US Constellation: starlink operational
LEOCIRCULAR

实时位置

正在加载3D地球...

关于 Starlink 35976

正在加载描述...

即将过境

Passes for default location (London). Set your location on the main map for personalized predictions.

高度历史

Loading altitude history...

两行轨道根数

1 66534U 25265U 26107.23119989 .00009415 00000-0 35113-3 0 9997
2 66534 43.0013 60.6309 0001161 272.9130 87.1589 15.27588493 23009
Epoch: Apr 17, 2026 • Age: 13 hours

当前状态

高度 482.5 km
速度 7.63 km/s
星下点 15.50°N, 92.6°E
发射日期 Nov 19, 2025
运行时间 0.4 years
类型 internet

技术详情

分类 Payload
质量 575.00 kg
干质量 530.00 kg
总质量 575.00 kg
长度 0.30 m
直径 4.10 m
跨度 29.00 m
形状 Box + pan
制造商 SPXS
平台类型 Starlink V2MO
阶段状态 In Orbit
所有者/国家 SPXS/US

Most Searched